Brookings, SD

12:23 PM CDT on October 19, 2017 (GMT -0500)
Brookings Municipal

Weather History for KBKX - January, 2012

Change the Weather History Date:

Saturday, January 14, 2012

  Actual Average Record
Temperature  
Mean Temperature 24 °F -  
Max Temperature 30 °F 20 °F 39 °F (2000)
Min Temperature 17 °F 4 °F -23 °F (2005)
Degree Days  
Heating Degree Days 42    
Moisture  
Dew Point 19 °F    
Average Humidity 81    
Maximum Humidity 100    
Minimum Humidity 68    
Precipitation  
Precipitation 0.00 in - - ()
Sea Level Pressure  
Sea Level Pressure 30.00 in    
Wind  
Wind Speed 6 mph (West)    
Max Wind Speed 17 mph    
Max Gust Speed 21 mph    
Visibility 9 miles    
Events      
Averages and records for this station are not official NWS values.
T = Trace of Precipitation, MM = Missing Value Source: NWS Daily Summary

Daily Weather History Graph

Daily Weather History Graph

Search for Another Location

Airport or City:

Trip Planner

Search our weather history database for the weather conditions in past years. The results will help you decide how hot, cold, wet, or windy it might be!

Date:

Astronomy

Jan. 14, 2012 Rise Set
Actual Time 8:00 AM CST 5:12 PM CST
Civil Twilight 7:28 AM CST 5:44 PM CST
Nautical Twilight 6:52 AM CST 6:20 PM CST
Astronomical Twilight 6:17 AM CST 6:55 PM CST
Moon 11:52 PM CST (1/14) 10:30 AM CST (1/14)
Length of Visible Light 10h 16m
Length of Day
9h 11m
Waning Gibbous, 68% of the Moon is Illuminated
Jan 14
Waning Gibbous
Jan 16
Last Quarter
Jan 23
New
Jan 30
First Quarter
Feb 7
Full

Hourly Weather History & Observations

Time (CST) Temp. Windchill Dew Point Humidity Pressure Visibility Wind Dir Wind Speed Gust Speed Precip Events Conditions
12:15 AM 17.6 °F 12.3 °F 10.4 °F 73% 29.92 in 10.0 mi South 3.5 mph - N/A   Overcast
12:35 AM 17.6 °F - 8.6 °F 68% 29.92 in 9.0 mi Calm Calm - N/A   Overcast
12:55 AM 17.6 °F 12.3 °F 10.4 °F 73% 29.92 in 10.0 mi SE 3.5 mph - N/A   Overcast
1:15 AM 17.6 °F 10.7 °F 10.4 °F 73% 29.93 in 10.0 mi ESE 4.6 mph - N/A   Overcast
1:35 AM 17.6 °F - 10.4 °F 73% 29.93 in 10.0 mi Calm Calm - N/A   Overcast
1:55 AM 17.6 °F 12.3 °F 10.4 °F 73% 29.94 in 10.0 mi SSE 3.5 mph - N/A   Overcast
2:15 AM 17.6 °F - 12.2 °F 79% 29.94 in 10.0 mi Calm Calm - N/A   Overcast
2:35 AM 17.6 °F 12.3 °F 14.0 °F 86% 29.94 in 5.0 mi South 3.5 mph - N/A   Overcast
2:55 AM 17.6 °F 10.7 °F 15.8 °F 93% 29.95 in 2.5 mi South 4.6 mph - N/A   Overcast
3:15 AM 17.6 °F 10.7 °F 15.8 °F 93% 29.95 in 5.0 mi South 4.6 mph - N/A   Overcast
3:35 AM 17.6 °F 12.3 °F 15.8 °F 93% 29.95 in 5.0 mi South 3.5 mph - N/A   Overcast
3:55 AM 17.6 °F 12.3 °F 15.8 °F 93% 29.95 in 6.0 mi South 3.5 mph - N/A   Overcast
4:15 AM 17.6 °F 10.7 °F 15.8 °F 93% 29.95 in 10.0 mi South 4.6 mph - N/A   Overcast
4:35 AM 17.6 °F 10.7 °F 17.6 °F 100% 29.95 in 10.0 mi South 4.6 mph - N/A   Overcast
4:55 AM 19.4 °F 12.8 °F 17.6 °F 93% 29.95 in 10.0 mi South 4.6 mph - N/A   Overcast
5:15 AM 19.4 °F 12.8 °F 17.6 °F 93% 29.96 in 9.0 mi SW 4.6 mph - N/A   Overcast
5:35 AM 19.4 °F 12.8 °F 17.6 °F 93% 29.96 in 4.0 mi SW 4.6 mph - N/A   Overcast
5:55 AM 19.4 °F 12.8 °F 17.6 °F 93% 29.96 in 5.0 mi SW 4.6 mph - N/A   Overcast
6:15 AM 21.2 °F 12.6 °F 19.4 °F 93% 29.96 in 6.0 mi West 6.9 mph - N/A   Overcast
6:35 AM 21.2 °F 13.6 °F 21.2 °F 100% 29.96 in 2.5 mi West 5.8 mph - N/A   Overcast
6:55 AM 23.0 °F 17.0 °F 21.2 °F 93% 29.97 in 3.0 mi West 4.6 mph - N/A   Overcast
7:35 AM 24.8 °F 17.9 °F 23.0 °F 93% 29.97 in 10.0 mi West 5.8 mph - N/A   Overcast
7:55 AM 24.8 °F 14.6 °F 24.8 °F 100% 29.98 in 9.0 mi WNW 10.4 mph - N/A   Overcast
8:15 AM 24.8 °F 14.6 °F 24.8 °F 100% 29.99 in 4.0 mi WNW 10.4 mph 17.3 mph N/A   Overcast
8:35 AM 26.6 °F 14.7 °F 24.8 °F 93% 30.00 in 7.0 mi WNW 15.0 mph 20.7 mph N/A   Overcast
8:55 AM 24.8 °F 14.6 °F 21.2 °F 86% 30.01 in 10.0 mi WNW 10.4 mph - N/A   Mostly Cloudy
9:15 AM 24.8 °F 14.0 °F 21.2 °F 86% 30.01 in 10.0 mi NW 11.5 mph - N/A   Mostly Cloudy
9:35 AM 24.8 °F 15.3 °F 21.2 °F 86% 30.01 in 10.0 mi NW 9.2 mph - N/A   Mostly Cloudy
9:55 AM 26.6 °F 16.2 °F 21.2 °F 80% 30.02 in 10.0 mi WNW 11.5 mph - N/A   Partly Cloudy
10:15 AM 26.6 °F 16.8 °F 21.2 °F 80% 30.03 in 10.0 mi WNW 10.4 mph - N/A   Clear
10:35 AM 26.6 °F 16.2 °F 19.4 °F 74% 30.03 in 10.0 mi WNW 11.5 mph - N/A   Clear
11:15 AM 26.6 °F 15.7 °F 21.2 °F 80% 30.03 in 10.0 mi WNW 12.7 mph 16.1 mph N/A   Clear
11:35 AM 26.6 °F 13.8 °F 21.2 °F 80% 30.03 in 10.0 mi WNW 17.3 mph - N/A   Clear
11:55 AM 28.4 °F 18.0 °F 21.2 °F 74% 30.03 in 10.0 mi NW 12.7 mph - N/A   Clear
12:15 PM 28.4 °F 17.5 °F 21.2 °F 74% 30.03 in 10.0 mi WNW 13.8 mph 17.3 mph N/A   Clear
12:35 PM 28.4 °F 18.0 °F 21.2 °F 74% 30.03 in 10.0 mi WNW 12.7 mph 17.3 mph N/A   Clear
12:55 PM 28.4 °F 17.0 °F 19.4 °F 69% 30.03 in 10.0 mi WNW 15.0 mph 18.4 mph N/A   Clear
1:15 PM 28.4 °F 17.5 °F 21.2 °F 74% 30.03 in 10.0 mi WNW 13.8 mph - N/A   Clear
1:35 PM 28.4 °F 18.5 °F 21.2 °F 74% 30.03 in 10.0 mi WNW 11.5 mph - N/A   Clear
1:55 PM 30.2 °F 20.8 °F 21.2 °F 69% 30.03 in 10.0 mi WNW 11.5 mph - N/A   Clear
2:15 PM 30.2 °F 20.8 °F 21.2 °F 69% 30.03 in 10.0 mi WNW 11.5 mph - N/A   Clear
2:35 PM 30.2 °F 21.3 °F 21.2 °F 69% 30.04 in 10.0 mi WNW 10.4 mph - N/A   Clear
2:55 PM 30.2 °F 22.6 °F 21.2 °F 69% 30.04 in 10.0 mi WNW 8.1 mph - N/A   Clear
3:15 PM 30.2 °F 23.4 °F 21.2 °F 69% 30.04 in 10.0 mi WNW 6.9 mph - N/A   Clear
3:35 PM 30.2 °F 23.4 °F 21.2 °F 69% 30.04 in 10.0 mi WNW 6.9 mph - N/A   Clear
3:55 PM 30.2 °F 22.6 °F 21.2 °F 69% 30.05 in 10.0 mi West 8.1 mph - N/A   Clear
4:15 PM 30.2 °F 23.4 °F 21.2 °F 69% 30.05 in 10.0 mi West 6.9 mph - N/A   Clear
4:35 PM 30.2 °F 24.3 °F 21.2 °F 69% 30.04 in 10.0 mi West 5.8 mph - N/A   Clear
4:55 PM 28.4 °F 23.3 °F 21.2 °F 74% 30.04 in 10.0 mi West 4.6 mph - N/A   Clear
5:15 PM 26.6 °F 22.6 °F 21.2 °F 80% 30.05 in 10.0 mi WSW 3.5 mph - N/A   Clear
5:35 PM 26.6 °F - 21.2 °F 80% 30.04 in 10.0 mi Calm Calm - N/A   Clear
5:55 PM 26.6 °F - 21.2 °F 80% 30.05 in 10.0 mi Calm Calm - N/A   Clear
6:15 PM 26.6 °F 20.0 °F 21.2 °F 80% 30.05 in 10.0 mi SSW 5.8 mph - N/A   Clear
6:35 PM 24.8 °F 17.9 °F 21.2 °F 86% 30.05 in 10.0 mi SSW 5.8 mph - N/A   Clear
6:55 PM 23.0 °F 15.8 °F 21.2 °F 93% 30.05 in 10.0 mi South 5.8 mph - N/A   Clear
7:15 PM 23.0 °F - 23.0 °F 100% 30.05 in 10.0 mi Calm Calm - N/A   Clear
7:35 PM 23.0 °F 18.4 °F 19.4 °F 86% 30.05 in 10.0 mi South 3.5 mph - N/A   Clear
7:55 PM 23.0 °F - 19.4 °F 86% 30.05 in 10.0 mi Calm Calm - N/A   Clear
8:15 PM 19.4 °F - 17.6 °F 93% 30.05 in 10.0 mi Calm Calm - N/A   Clear
8:35 PM 19.4 °F 9.5 °F 15.8 °F 86% 30.05 in 10.0 mi South 8.1 mph - N/A   Clear
8:55 PM 23.0 °F 13.9 °F 19.4 °F 86% 30.04 in 10.0 mi South 8.1 mph - N/A   Clear
9:15 PM 21.2 °F 13.6 °F 19.4 °F 93% 30.05 in 10.0 mi South 5.8 mph - N/A   Clear
9:55 PM 17.6 °F 7.3 °F 17.6 °F 100% 30.04 in 10.0 mi SSE 8.1 mph - N/A   Clear
10:15 PM 17.6 °F 7.3 °F 17.6 °F 100% 30.03 in 10.0 mi SE 8.1 mph - N/A   Mostly Cloudy
10:55 PM 17.6 °F 9.3 °F 14.0 °F 86% 30.02 in 10.0 mi SE 5.8 mph - N/A   Clear
11:15 PM 17.6 °F 7.3 °F 15.8 °F 93% 30.02 in 10.0 mi SSE 8.1 mph - N/A   Clear
11:35 PM 19.4 °F 8.6 °F 17.6 °F 93% 30.02 in 10.0 mi SE 9.2 mph - N/A   Mostly Cloudy
11:55 PM 21.2 °F 10.1 °F 17.6 °F 86% 30.01 in 10.0 mi SE 10.4 mph - N/A   Mostly Cloudy